Year,Month,Day,Hour,Minute,Value (Times are PST for temperature in C)
2012,10,07,00,02,11.10
2012,10,07,00,04,11.10
2012,10,07,00,05,11.20
2012,10,07,00,06,11.20
2012,10,07,00,07,11.20
2012,10,07,00,08,11.30
2012,10,07,00,10,11.30
2012,10,07,00,11,11.30
2012,10,07,00,12,11.40
2012,10,07,00,13,11.40
2012,10,07,00,14,11.40
2012,10,07,00,15,11.40
2012,10,07,00,16,11.40
2012,10,07,00,17,11.40
2012,10,07,00,18,11.40
2012,10,07,00,20,11.40
2012,10,07,00,21,11.40
2012,10,07,00,22,11.40
2012,10,07,00,23,11.40
2012,10,07,00,24,11.40
2012,10,07,00,25,11.40
2012,10,07,00,26,11.40
2012,10,07,00,27,11.40
2012,10,07,00,28,11.40
2012,10,07,00,29,11.40
2012,10,07,00,30,11.40
2012,10,07,00,31,11.40
2012,10,07,00,32,11.30
2012,10,07,00,33,11.30
2012,10,07,00,34,11.30
2012,10,07,00,35,11.30
2012,10,07,00,36,11.20
2012,10,07,00,37,11.20
2012,10,07,00,38,11.20
2012,10,07,00,40,11.20
2012,10,07,00,41,11.20
2012,10,07,00,42,11.10
2012,10,07,00,43,11.10
2012,10,07,00,45,11.10
2012,10,07,00,46,11.10
2012,10,07,00,47,11.00
2012,10,07,00,49,10.90
2012,10,07,00,50,10.80
2012,10,07,00,51,10.80
2012,10,07,00,53,10.80
2012,10,07,00,54,10.80
2012,10,07,00,55,10.80
2012,10,07,00,56,10.80
2012,10,07,00,57,10.80
2012,10,07,00,58,10.80
2012,10,07,00,59,10.80
2012,10,07,01,00,10.80
2012,10,07,01,01,10.70
2012,10,07,01,03,10.70
2012,10,07,01,04,10.70
2012,10,07,01,05,10.60
2012,10,07,01,06,10.60
2012,10,07,01,07,10.60
2012,10,07,01,08,10.60
2012,10,07,01,09,10.50
2012,10,07,01,10,10.50
2012,10,07,01,11,10.50
2012,10,07,01,12,10.50
2012,10,07,01,13,10.50
2012,10,07,01,14,10.60
2012,10,07,01,15,10.60
2012,10,07,01,16,10.60
2012,10,07,01,17,10.70
2012,10,07,01,19,10.70
2012,10,07,01,20,10.80
2012,10,07,01,21,10.80
2012,10,07,01,22,10.80
2012,10,07,01,23,10.90
2012,10,07,01,24,10.90
2012,10,07,01,25,10.90
2012,10,07,01,26,10.90
2012,10,07,01,27,10.90
2012,10,07,01,29,10.90
2012,10,07,01,30,10.90
2012,10,07,01,31,10.90
2012,10,07,01,32,10.90
2012,10,07,01,33,10.90
2012,10,07,01,34,10.90
2012,10,07,01,35,10.90
2012,10,07,01,36,10.80
2012,10,07,01,37,10.80
2012,10,07,01,39,10.70
2012,10,07,01,40,10.60
2012,10,07,01,41,10.50
2012,10,07,01,42,10.50
2012,10,07,01,44,10.50
2012,10,07,01,45,10.50
2012,10,07,01,46,10.50
2012,10,07,01,47,10.60
2012,10,07,01,48,10.60
2012,10,07,01,49,10.70
2012,10,07,01,50,10.70
2012,10,07,01,51,10.60
2012,10,07,01,52,10.60
2012,10,07,01,53,10.60
2012,10,07,01,54,10.60
2012,10,07,01,55,10.70
2012,10,07,01,56,10.70
2012,10,07,01,58,10.80
2012,10,07,01,59,10.90
2012,10,07,02,00,10.90
2012,10,07,02,01,10.90
2012,10,07,02,02,10.80
2012,10,07,02,03,10.80
2012,10,07,02,04,10.80
2012,10,07,02,05,10.70
2012,10,07,02,07,10.70
2012,10,07,02,08,10.60
2012,10,07,02,09,10.60
2012,10,07,02,10,10.50
2012,10,07,02,11,10.50
2012,10,07,02,12,10.40
2012,10,07,02,13,10.40
2012,10,07,02,15,10.40
2012,10,07,02,16,10.40
2012,10,07,02,17,10.40
2012,10,07,02,19,10.40
2012,10,07,02,20,10.40
2012,10,07,02,21,10.30
2012,10,07,02,22,10.40
2012,10,07,02,24,10.40
2012,10,07,02,25,10.40
2012,10,07,02,26,10.40
2012,10,07,02,27,10.50
2012,10,07,02,28,10.50
2012,10,07,02,29,10.60
2012,10,07,02,30,10.60
2012,10,07,02,32,10.50
2012,10,07,02,33,10.50
2012,10,07,02,34,10.50
2012,10,07,02,35,10.50
2012,10,07,02,37,10.50
2012,10,07,02,38,10.50
2012,10,07,02,39,10.50
2012,10,07,02,40,10.50
2012,10,07,02,42,10.50
2012,10,07,02,43,10.40
2012,10,07,02,44,10.40
2012,10,07,02,45,10.30
2012,10,07,02,46,10.30
2012,10,07,02,47,10.30
2012,10,07,02,48,10.30
2012,10,07,02,49,10.40
2012,10,07,02,51,10.40
2012,10,07,02,52,10.50
2012,10,07,02,53,10.50
2012,10,07,02,54,10.60
2012,10,07,02,56,10.60
2012,10,07,02,57,10.70
2012,10,07,02,58,10.70
2012,10,07,02,59,10.80
2012,10,07,03,00,10.80
2012,10,07,03,01,10.80
2012,10,07,03,02,10.80
2012,10,07,03,03,10.80
2012,10,07,03,04,10.80
2012,10,07,03,06,10.70
2012,10,07,03,07,10.70
2012,10,07,03,08,10.70
2012,10,07,03,09,10.70
2012,10,07,03,11,10.70
2012,10,07,03,12,10.80
2012,10,07,03,13,10.80
2012,10,07,03,14,10.80
2012,10,07,03,16,10.80
2012,10,07,03,17,10.80
2012,10,07,03,18,10.70
2012,10,07,03,19,10.60
2012,10,07,03,21,10.40
2012,10,07,03,22,10.40
2012,10,07,03,23,10.40
2012,10,07,03,24,10.40
2012,10,07,03,25,10.60
2012,10,07,03,27,10.60
2012,10,07,03,28,10.70
2012,10,07,03,29,10.70
2012,10,07,03,30,10.80
2012,10,07,03,31,10.80
2012,10,07,03,32,10.80
2012,10,07,03,33,10.70
2012,10,07,03,34,10.60
2012,10,07,03,35,10.40
2012,10,07,03,36,10.40
2012,10,07,03,37,10.20
2012,10,07,03,38,10.10
2012,10,07,03,39,9.90
2012,10,07,03,40,9.90
2012,10,07,03,41,9.80
2012,10,07,03,42,9.80
2012,10,07,03,43,9.70
2012,10,07,03,44,9.60
2012,10,07,03,45,9.60
2012,10,07,03,46,9.50
2012,10,07,03,47,9.40
2012,10,07,03,48,9.40
2012,10,07,03,49,9.40
2012,10,07,03,50,9.40
2012,10,07,03,52,9.40
2012,10,07,03,53,9.40
2012,10,07,03,54,9.40
2012,10,07,03,55,9.30
2012,10,07,03,57,9.30
2012,10,07,03,58,9.30
2012,10,07,03,59,9.20
2012,10,07,04,01,9.20
2012,10,07,04,02,9.20
2012,10,07,04,03,9.20
2012,10,07,04,04,9.10
2012,10,07,04,05,9.00
2012,10,07,04,07,8.90
2012,10,07,04,08,8.80
2012,10,07,04,09,8.80
2012,10,07,04,10,8.80
2012,10,07,04,11,8.80
2012,10,07,04,12,8.80
2012,10,07,04,13,8.80
2012,10,07,04,14,8.80
2012,10,07,04,15,8.80
2012,10,07,04,17,8.80
2012,10,07,04,18,8.70
2012,10,07,04,19,8.60
2012,10,07,04,20,8.60
2012,10,07,04,22,8.60
2012,10,07,04,23,8.60
2012,10,07,04,24,8.60
2012,10,07,04,25,8.60
2012,10,07,04,27,8.60
2012,10,07,04,28,8.60
2012,10,07,04,29,8.60
2012,10,07,04,30,8.60
2012,10,07,04,31,8.50
2012,10,07,04,32,8.50
2012,10,07,04,33,8.40
2012,10,07,04,34,8.40
2012,10,07,04,35,8.30
2012,10,07,04,36,8.30
2012,10,07,04,37,8.30
2012,10,07,04,38,8.30
2012,10,07,04,39,8.20
2012,10,07,04,40,8.20
2012,10,07,04,41,8.10
2012,10,07,04,42,8.00
2012,10,07,04,43,8.00
2012,10,07,04,45,8.00
2012,10,07,04,46,8.00
2012,10,07,04,47,8.00
2012,10,07,04,49,8.00
2012,10,07,04,50,8.10
2012,10,07,04,51,8.10
2012,10,07,04,52,8.10
2012,10,07,04,53,8.20
2012,10,07,04,54,8.20
2012,10,07,04,55,8.20
2012,10,07,04,56,8.30
2012,10,07,04,57,8.30
2012,10,07,04,58,8.40
2012,10,07,04,59,8.40
2012,10,07,05,00,8.50
2012,10,07,05,01,8.60
2012,10,07,05,02,8.60
2012,10,07,05,04,8.70
2012,10,07,05,05,8.80
2012,10,07,05,06,8.80
2012,10,07,05,07,8.90
2012,10,07,05,09,9.00
2012,10,07,05,10,9.10
2012,10,07,05,11,9.10
2012,10,07,05,12,9.10
2012,10,07,05,14,9.10
2012,10,07,05,15,9.00
2012,10,07,05,16,8.90
2012,10,07,05,17,8.90
2012,10,07,05,18,8.80
2012,10,07,05,19,8.80
2012,10,07,05,20,8.80
2012,10,07,05,21,8.80
2012,10,07,05,22,8.70
2012,10,07,05,23,8.70
2012,10,07,05,24,8.70
2012,10,07,05,25,8.60
2012,10,07,05,26,8.50
2012,10,07,05,27,8.40
2012,10,07,05,29,8.40
2012,10,07,05,30,8.30
2012,10,07,05,31,8.30
2012,10,07,05,32,8.20
2012,10,07,05,33,8.20
2012,10,07,05,34,8.20
2012,10,07,05,35,8.20
2012,10,07,05,36,8.20
2012,10,07,05,37,8.20
2012,10,07,05,38,8.10
2012,10,07,05,39,8.10
2012,10,07,05,40,8.10
2012,10,07,05,41,8.00
2012,10,07,05,42,8.00
2012,10,07,05,43,7.90
2012,10,07,05,44,7.90
2012,10,07,05,45,7.90
2012,10,07,05,47,7.90
2012,10,07,05,48,7.90
2012,10,07,05,49,7.90
2012,10,07,05,50,8.00
2012,10,07,05,51,8.00
2012,10,07,05,52,8.00
2012,10,07,05,53,8.00
2012,10,07,05,54,8.00
2012,10,07,05,55,8.10
2012,10,07,05,56,8.10
2012,10,07,05,57,8.10
2012,10,07,05,58,8.10
2012,10,07,05,59,8.10
2012,10,07,06,00,8.20
2012,10,07,06,02,8.20
2012,10,07,06,03,8.20
2012,10,07,06,04,8.30
2012,10,07,06,05,8.30
2012,10,07,06,07,8.30
2012,10,07,06,08,8.30
2012,10,07,06,09,8.40
2012,10,07,06,11,8.40
2012,10,07,06,12,8.40
2012,10,07,06,13,8.40
2012,10,07,06,14,8.40
2012,10,07,06,15,8.40
2012,10,07,06,16,8.50
2012,10,07,06,17,8.50
2012,10,07,06,18,8.60
2012,10,07,06,19,8.60
2012,10,07,06,20,8.60
2012,10,07,06,21,8.60
2012,10,07,06,22,8.60
2012,10,07,06,23,8.60
2012,10,07,06,24,8.60
2012,10,07,06,25,8.60
2012,10,07,06,26,8.50
2012,10,07,06,27,8.50
2012,10,07,06,29,8.50
2012,10,07,06,30,8.50
2012,10,07,06,31,8.50
2012,10,07,06,32,8.50
2012,10,07,06,34,8.40
2012,10,07,06,35,8.40
2012,10,07,06,36,8.40
2012,10,07,06,37,8.40
2012,10,07,06,38,8.40
2012,10,07,06,39,8.40
2012,10,07,06,40,8.40
2012,10,07,06,41,8.40
2012,10,07,06,42,8.40
2012,10,07,06,44,8.40
2012,10,07,06,45,8.40
2012,10,07,06,46,8.40
2012,10,07,06,48,8.30
2012,10,07,06,49,8.30
2012,10,07,06,50,8.30
2012,10,07,06,51,8.40
2012,10,07,06,52,8.40
2012,10,07,06,53,8.40
2012,10,07,06,54,8.50
2012,10,07,06,55,8.60
2012,10,07,06,57,8.60
2012,10,07,06,58,8.60
2012,10,07,06,59,8.60
2012,10,07,07,00,8.60
2012,10,07,07,02,8.50
2012,10,07,07,03,8.40
2012,10,07,07,04,8.40
2012,10,07,07,06,8.40
2012,10,07,07,07,8.30
2012,10,07,07,08,8.30
2012,10,07,07,09,8.30
2012,10,07,07,10,8.30
2012,10,07,07,11,8.30
2012,10,07,07,12,8.30
2012,10,07,07,13,8.30
2012,10,07,07,14,8.30
2012,10,07,07,15,8.30
2012,10,07,07,17,8.30
2012,10,07,07,18,8.40
2012,10,07,07,19,8.40
2012,10,07,07,20,8.40
2012,10,07,07,22,8.40
2012,10,07,07,23,8.40
2012,10,07,07,24,8.40
2012,10,07,07,25,8.40
2012,10,07,07,27,8.40
2012,10,07,07,28,8.40
2012,10,07,07,29,8.40
2012,10,07,07,30,8.40
2012,10,07,07,32,8.40
2012,10,07,07,33,8.40
2012,10,07,07,34,8.40
2012,10,07,07,36,8.40
2012,10,07,07,37,8.50
2012,10,07,07,38,8.60
2012,10,07,07,39,8.60
2012,10,07,07,40,8.60
2012,10,07,07,41,8.70
2012,10,07,07,42,8.70
2012,10,07,07,43,8.70
2012,10,07,07,45,8.80
2012,10,07,07,46,8.80
2012,10,07,07,47,8.80
2012,10,07,07,48,8.80
2012,10,07,07,49,8.90
2012,10,07,07,51,8.90
2012,10,07,07,52,8.90
2012,10,07,07,53,8.90
2012,10,07,07,54,8.80
2012,10,07,07,55,8.80
2012,10,07,07,57,8.80
2012,10,07,07,58,8.80
2012,10,07,07,59,8.80
2012,10,07,08,00,8.70
2012,10,07,08,02,8.70
2012,10,07,08,03,8.70
2012,10,07,08,04,8.70
2012,10,07,08,05,8.70
2012,10,07,08,06,8.70
2012,10,07,08,08,8.70
2012,10,07,08,09,8.70
2012,10,07,08,10,8.70
2012,10,07,08,11,8.70
2012,10,07,08,12,8.80
2012,10,07,08,14,8.80
2012,10,07,08,15,8.90
2012,10,07,08,16,8.90
2012,10,07,08,17,8.90
2012,10,07,08,18,8.90
2012,10,07,08,19,9.00
2012,10,07,08,20,9.00
2012,10,07,08,22,9.10
2012,10,07,08,23,9.10
2012,10,07,08,24,9.10
2012,10,07,08,25,9.10
2012,10,07,08,27,9.20
2012,10,07,08,28,9.20
2012,10,07,08,29,9.20
2012,10,07,08,30,9.30
2012,10,07,08,31,9.30
2012,10,07,08,32,9.30
2012,10,07,08,33,9.30
2012,10,07,08,34,9.30
2012,10,07,08,35,9.40
2012,10,07,08,36,9.40
2012,10,07,08,37,9.40
2012,10,07,08,38,9.50
2012,10,07,08,39,9.60
2012,10,07,08,40,9.60
2012,10,07,08,41,9.70
2012,10,07,08,43,9.70
2012,10,07,08,44,9.80
2012,10,07,08,45,9.80
2012,10,07,08,46,9.90
2012,10,07,08,47,9.90
2012,10,07,08,49,10.00
2012,10,07,08,50,10.10
2012,10,07,08,51,10.20
2012,10,07,08,52,10.30
2012,10,07,08,53,10.30
2012,10,07,08,54,10.40
2012,10,07,08,55,10.60
2012,10,07,08,56,10.70
2012,10,07,08,57,10.80
2012,10,07,08,58,10.90
2012,10,07,08,59,11.00
2012,10,07,09,00,11.20
2012,10,07,09,01,11.30
2012,10,07,09,02,11.40
2012,10,07,09,03,11.60
2012,10,07,09,04,11.80
2012,10,07,09,06,11.90
2012,10,07,09,07,12.20
2012,10,07,09,08,12.30
2012,10,07,09,09,12.40
2012,10,07,09,10,12.50
2012,10,07,09,11,12.60
2012,10,07,09,12,12.80
2012,10,07,09,13,12.80
2012,10,07,09,14,12.90
2012,10,07,09,16,13.00
2012,10,07,09,17,13.10
2012,10,07,09,18,13.20
2012,10,07,09,19,13.20
2012,10,07,09,21,13.30
2012,10,07,09,22,13.30
2012,10,07,09,23,13.30
2012,10,07,09,24,13.40
2012,10,07,09,25,13.40
2012,10,07,09,26,13.40
2012,10,07,09,27,13.40
2012,10,07,09,28,13.50
2012,10,07,09,29,13.50
2012,10,07,09,30,13.60
2012,10,07,09,31,13.60
2012,10,07,09,32,13.60
2012,10,07,09,33,13.70
2012,10,07,09,34,13.70
2012,10,07,09,35,13.80
2012,10,07,09,36,13.80
2012,10,07,09,37,13.80
2012,10,07,09,39,13.90
2012,10,07,09,40,13.90
2012,10,07,09,41,14.00
2012,10,07,09,42,14.00
2012,10,07,09,43,14.00
2012,10,07,09,44,14.10
2012,10,07,09,45,14.10
2012,10,07,09,46,14.20
2012,10,07,09,47,14.30
2012,10,07,09,49,14.30
2012,10,07,09,50,14.40
2012,10,07,09,51,14.50
2012,10,07,09,52,14.60
2012,10,07,09,54,14.70
2012,10,07,09,55,14.70
2012,10,07,09,56,14.80
2012,10,07,09,57,14.80
2012,10,07,09,58,14.80
2012,10,07,09,59,14.90
2012,10,07,10,00,15.00
2012,10,07,10,01,15.10
2012,10,07,10,03,15.10
2012,10,07,10,04,15.20
2012,10,07,10,05,15.30
2012,10,07,10,06,15.30
2012,10,07,10,08,15.30
2012,10,07,10,09,15.40
2012,10,07,10,10,15.40
2012,10,07,10,11,15.50
2012,10,07,10,12,15.50
2012,10,07,10,13,15.60
2012,10,07,10,14,15.60
2012,10,07,10,15,15.60
2012,10,07,10,16,15.60
2012,10,07,10,18,15.60
2012,10,07,10,19,15.70
2012,10,07,10,20,15.70
2012,10,07,10,21,15.70
2012,10,07,10,23,15.70
2012,10,07,10,24,15.80
2012,10,07,10,25,15.80
2012,10,07,10,26,15.80
2012,10,07,10,27,15.80
2012,10,07,10,28,15.80
2012,10,07,10,29,15.80
2012,10,07,10,30,15.80
2012,10,07,10,31,15.80
2012,10,07,10,32,15.80
2012,10,07,10,33,15.80
2012,10,07,10,34,15.90
2012,10,07,10,35,15.90
2012,10,07,10,36,15.90
2012,10,07,10,37,15.90
2012,10,07,10,38,15.80
2012,10,07,10,39,15.80
2012,10,07,10,41,15.80
2012,10,07,10,42,15.90
2012,10,07,10,43,15.90
2012,10,07,10,44,15.90
2012,10,07,10,45,16.00
2012,10,07,10,46,16.00
2012,10,07,10,47,16.00
2012,10,07,10,48,16.10
2012,10,07,10,49,16.10
2012,10,07,10,50,16.10
2012,10,07,10,52,16.10
2012,10,07,10,53,16.10
2012,10,07,10,54,16.10
2012,10,07,10,56,16.10
2012,10,07,10,57,16.10
2012,10,07,10,58,16.10
2012,10,07,10,59,16.10
2012,10,07,11,00,16.20
2012,10,07,11,02,16.20
2012,10,07,11,03,16.20
2012,10,07,11,04,16.30
2012,10,07,11,06,16.30
2012,10,07,11,07,16.30
2012,10,07,11,08,16.30
2012,10,07,11,09,16.30
2012,10,07,11,10,16.30
2012,10,07,11,11,16.30
2012,10,07,11,12,16.30
2012,10,07,11,13,16.40
2012,10,07,11,14,16.40
2012,10,07,11,16,16.50
2012,10,07,11,17,16.60
2012,10,07,11,18,16.60
2012,10,07,11,19,16.60
2012,10,07,11,21,16.60
2012,10,07,11,22,16.70
2012,10,07,11,23,16.80
2012,10,07,11,24,16.80
2012,10,07,11,25,16.80
2012,10,07,11,26,16.80
2012,10,07,11,27,16.80
2012,10,07,11,28,16.70
2012,10,07,11,29,16.80
2012,10,07,11,30,16.80
2012,10,07,11,32,16.80
2012,10,07,11,33,16.80
2012,10,07,11,34,16.90
2012,10,07,11,35,16.90
2012,10,07,11,37,17.00
2012,10,07,11,38,17.10
2012,10,07,11,39,17.10
2012,10,07,11,40,17.20
2012,10,07,11,42,17.20
2012,10,07,11,43,17.30
2012,10,07,11,44,17.40
2012,10,07,11,45,17.40
2012,10,07,11,47,17.50
2012,10,07,11,48,17.60
2012,10,07,11,49,17.70
2012,10,07,11,50,17.70
2012,10,07,11,52,17.70
2012,10,07,11,53,17.70
2012,10,07,11,54,17.70
2012,10,07,11,55,17.70
2012,10,07,11,57,17.70
2012,10,07,11,58,17.70
2012,10,07,11,59,17.80
2012,10,07,12,00,17.80
2012,10,07,12,01,17.80
2012,10,07,12,03,17.90
2012,10,07,12,04,17.90
2012,10,07,12,05,17.90
2012,10,07,12,06,18.00
2012,10,07,12,08,18.10
2012,10,07,12,09,18.10
2012,10,07,12,10,18.10
2012,10,07,12,11,18.00
2012,10,07,12,13,18.00
2012,10,07,12,14,18.00
2012,10,07,12,15,18.00
2012,10,07,12,16,18.00
2012,10,07,12,18,18.00
2012,10,07,12,19,18.00
2012,10,07,12,20,17.90
2012,10,07,12,21,17.90
2012,10,07,12,23,17.90
2012,10,07,12,24,18.00
2012,10,07,12,25,18.10
2012,10,07,12,26,18.10
2012,10,07,12,27,18.20
2012,10,07,12,29,18.20
2012,10,07,12,30,18.30
2012,10,07,12,31,18.30
2012,10,07,12,32,18.40
2012,10,07,12,33,18.40
2012,10,07,12,34,18.40
2012,10,07,12,35,18.40
2012,10,07,12,36,18.30
2012,10,07,12,37,18.30
2012,10,07,12,38,18.30
2012,10,07,12,39,18.20
2012,10,07,12,40,18.20
2012,10,07,12,41,18.20
2012,10,07,12,42,18.20
2012,10,07,12,43,18.20
2012,10,07,12,44,18.20
2012,10,07,12,45,18.20
2012,10,07,12,46,18.20
2012,10,07,12,47,18.20
2012,10,07,12,48,18.20
2012,10,07,12,49,18.30
2012,10,07,12,50,18.30
2012,10,07,12,52,18.40
2012,10,07,12,53,18.40
2012,10,07,12,54,18.60
2012,10,07,12,55,18.60
2012,10,07,12,56,18.70
2012,10,07,12,57,18.60
2012,10,07,12,58,18.60
2012,10,07,12,59,18.60
2012,10,07,13,00,18.60
2012,10,07,13,01,18.60
2012,10,07,13,02,18.60
2012,10,07,13,03,18.50
2012,10,07,13,04,18.40
2012,10,07,13,05,18.40
2012,10,07,13,06,18.40
2012,10,07,13,08,18.40
2012,10,07,13,09,18.40
2012,10,07,13,10,18.40
2012,10,07,13,11,18.40
2012,10,07,13,12,18.40
2012,10,07,13,13,18.40
2012,10,07,13,14,18.40
2012,10,07,13,15,18.30
2012,10,07,13,17,18.30
2012,10,07,13,18,18.30
2012,10,07,13,19,18.30
2012,10,07,13,20,18.40
2012,10,07,13,21,18.40
2012,10,07,13,23,18.50
2012,10,07,13,24,18.60
2012,10,07,13,25,18.60
2012,10,07,13,26,18.60
2012,10,07,13,27,18.70
2012,10,07,13,28,18.70
2012,10,07,13,29,18.80
2012,10,07,13,30,18.80
2012,10,07,13,31,18.90
2012,10,07,13,33,18.90
2012,10,07,13,34,18.90
2012,10,07,13,35,19.00
2012,10,07,13,36,19.10
2012,10,07,13,37,19.10
2012,10,07,13,38,19.10
2012,10,07,13,39,19.10
2012,10,07,13,40,19.20
2012,10,07,13,41,19.20
2012,10,07,13,42,19.20
2012,10,07,13,43,19.20
2012,10,07,13,44,19.20
2012,10,07,13,45,19.30
2012,10,07,13,46,19.30
2012,10,07,13,48,19.40
2012,10,07,13,49,19.60
2012,10,07,13,50,19.60
2012,10,07,13,52,19.70
2012,10,07,13,53,19.80
2012,10,07,13,54,19.80
2012,10,07,13,55,19.90
2012,10,07,13,57,19.90
2012,10,07,13,58,20.10
2012,10,07,13,59,20.10
2012,10,07,14,00,20.20
2012,10,07,14,01,20.20
2012,10,07,14,02,20.30
2012,10,07,14,03,20.40
2012,10,07,14,04,20.40
2012,10,07,14,05,20.50
2012,10,07,14,07,20.50
2012,10,07,14,08,20.50
2012,10,07,14,09,20.50
2012,10,07,14,10,20.50
2012,10,07,14,11,20.50
2012,10,07,14,12,20.50
2012,10,07,14,13,20.50
2012,10,07,14,14,20.60
2012,10,07,14,16,20.60
2012,10,07,14,17,20.60
2012,10,07,14,18,20.60
2012,10,07,14,19,20.60
2012,10,07,14,20,20.60
2012,10,07,14,21,20.70
2012,10,07,14,22,20.70
2012,10,07,14,23,20.80
2012,10,07,14,25,20.90
2012,10,07,14,26,21.20
2012,10,07,14,27,21.20
2012,10,07,14,28,21.30
2012,10,07,14,30,21.30
2012,10,07,14,31,21.60
2012,10,07,14,32,21.60
2012,10,07,14,33,21.60
2012,10,07,14,35,21.60
2012,10,07,14,36,21.70
2012,10,07,14,37,21.70
2012,10,07,14,38,21.70
2012,10,07,14,39,21.70
2012,10,07,14,40,21.70
2012,10,07,14,41,21.80
2012,10,07,14,42,21.90
2012,10,07,14,43,21.90
2012,10,07,14,45,21.90
2012,10,07,14,46,21.90
2012,10,07,14,47,21.90
2012,10,07,14,48,22.00
2012,10,07,14,50,22.00
2012,10,07,14,51,21.90
2012,10,07,14,52,21.90
2012,10,07,14,53,21.80
2012,10,07,14,54,21.80
2012,10,07,14,55,21.70
2012,10,07,14,56,21.60
2012,10,07,14,57,21.40
2012,10,07,14,58,21.20
2012,10,07,14,59,21.10
2012,10,07,15,00,20.90
2012,10,07,15,01,20.70
2012,10,07,15,02,20.50
2012,10,07,15,04,20.40
2012,10,07,15,05,20.30
2012,10,07,15,06,20.30
2012,10,07,15,07,20.30
2012,10,07,15,09,20.30
2012,10,07,15,10,20.30
2012,10,07,15,11,20.40
2012,10,07,15,12,20.40
2012,10,07,15,13,20.40
2012,10,07,15,14,20.60
2012,10,07,15,15,20.60
2012,10,07,15,16,20.70
2012,10,07,15,17,20.80
2012,10,07,15,18,20.80
2012,10,07,15,19,20.90
2012,10,07,15,20,20.90
2012,10,07,15,21,21.00
2012,10,07,15,22,21.10
2012,10,07,15,23,21.10
2012,10,07,15,24,21.00
2012,10,07,15,25,20.90
2012,10,07,15,26,20.80
2012,10,07,15,28,20.70
2012,10,07,15,29,20.60
2012,10,07,15,30,20.60
2012,10,07,15,31,20.40
2012,10,07,15,32,20.40
2012,10,07,15,33,20.40
2012,10,07,15,34,20.30
2012,10,07,15,35,20.20
2012,10,07,15,36,20.10
2012,10,07,15,38,20.10
2012,10,07,15,39,20.10
2012,10,07,15,40,20.10
2012,10,07,15,41,20.10
2012,10,07,15,42,20.10
2012,10,07,15,44,20.20
2012,10,07,15,45,20.20
2012,10,07,15,46,20.20
2012,10,07,15,48,20.30
2012,10,07,15,49,20.40
2012,10,07,15,50,20.50
2012,10,07,15,52,20.40
2012,10,07,15,53,20.30
2012,10,07,15,54,20.20
2012,10,07,15,55,20.10
2012,10,07,15,57,20.10
2012,10,07,15,58,20.00
2012,10,07,15,59,20.00
2012,10,07,16,00,20.10
2012,10,07,16,02,20.20
2012,10,07,16,03,20.20
2012,10,07,16,04,20.30
2012,10,07,16,05,20.40
2012,10,07,16,06,20.50
2012,10,07,16,08,20.70
2012,10,07,16,09,20.90
2012,10,07,16,10,20.90
2012,10,07,16,12,21.10
2012,10,07,16,13,21.10
2012,10,07,16,14,21.20
2012,10,07,16,15,21.20
2012,10,07,16,16,21.20
2012,10,07,16,17,21.30
2012,10,07,16,18,21.30
2012,10,07,16,19,21.40
2012,10,07,16,21,21.40
2012,10,07,16,22,21.60
2012,10,07,16,23,21.60
2012,10,07,16,24,21.40
2012,10,07,16,26,21.40
2012,10,07,16,27,21.30
2012,10,07,16,28,21.20
2012,10,07,16,30,21.20
2012,10,07,16,31,21.20
2012,10,07,16,32,21.20
2012,10,07,16,33,21.20
2012,10,07,16,34,21.20
2012,10,07,16,35,21.30
2012,10,07,16,36,21.30
2012,10,07,16,37,21.30
2012,10,07,16,38,21.30
2012,10,07,16,39,21.30
2012,10,07,16,40,21.30
2012,10,07,16,41,21.30
2012,10,07,16,42,21.20
2012,10,07,16,43,21.10
2012,10,07,16,44,21.00
2012,10,07,16,45,20.90
2012,10,07,16,46,20.80
2012,10,07,16,47,20.80
2012,10,07,16,48,20.70
2012,10,07,16,50,20.60
2012,10,07,16,51,20.40
2012,10,07,16,52,20.30
2012,10,07,16,54,20.30
2012,10,07,16,55,20.20
2012,10,07,16,56,20.10
2012,10,07,16,57,20.10
2012,10,07,16,58,20.00
2012,10,07,16,59,19.90
2012,10,07,17,00,19.90
2012,10,07,17,01,19.90
2012,10,07,17,03,19.90
2012,10,07,17,04,19.90
2012,10,07,17,05,19.90
2012,10,07,17,06,20.00
2012,10,07,17,08,20.10
2012,10,07,17,09,20.10
2012,10,07,17,10,20.20
2012,10,07,17,11,20.20
2012,10,07,17,12,20.10
2012,10,07,17,13,20.10
2012,10,07,17,14,20.10
2012,10,07,17,15,20.10
2012,10,07,17,16,20.10
2012,10,07,17,18,20.00
2012,10,07,17,19,19.90
2012,10,07,17,20,19.90
2012,10,07,17,22,19.80
2012,10,07,17,23,19.70
2012,10,07,17,24,19.70
2012,10,07,17,25,19.60
2012,10,07,17,27,19.60
2012,10,07,17,28,19.60
2012,10,07,17,29,19.60
2012,10,07,17,30,19.60
2012,10,07,17,31,19.60
2012,10,07,17,32,19.60
2012,10,07,17,33,19.50
2012,10,07,17,34,19.40
2012,10,07,17,36,19.40
2012,10,07,17,37,19.40
2012,10,07,17,38,19.40
2012,10,07,17,40,19.40
2012,10,07,17,41,19.30
2012,10,07,17,42,19.20
2012,10,07,17,43,19.10
2012,10,07,17,45,19.10
2012,10,07,17,46,19.00
2012,10,07,17,47,18.90
2012,10,07,17,48,18.90
2012,10,07,17,49,18.90
2012,10,07,17,50,18.90
2012,10,07,17,51,18.80
2012,10,07,17,52,18.80
2012,10,07,17,53,18.70
2012,10,07,17,55,18.70
2012,10,07,17,56,18.60
2012,10,07,17,57,18.60
2012,10,07,17,58,18.60
2012,10,07,17,59,18.60
2012,10,07,18,00,18.60
2012,10,07,18,01,18.50
2012,10,07,18,02,18.50
2012,10,07,18,03,18.50
2012,10,07,18,04,18.50
2012,10,07,18,05,18.50
2012,10,07,18,06,18.50
2012,10,07,18,07,18.50
2012,10,07,18,08,18.60
2012,10,07,18,10,18.60
2012,10,07,18,11,18.50
2012,10,07,18,12,18.40
2012,10,07,18,13,18.40
2012,10,07,18,14,18.40
2012,10,07,18,15,18.30
2012,10,07,18,16,18.30
2012,10,07,18,17,18.30
2012,10,07,18,18,18.20
2012,10,07,18,19,18.20
2012,10,07,18,20,18.20
2012,10,07,18,21,18.20
2012,10,07,18,22,18.20
2012,10,07,18,23,18.20
2012,10,07,18,24,18.20
2012,10,07,18,25,18.10
2012,10,07,18,26,18.00
2012,10,07,18,27,17.90
2012,10,07,18,29,17.80
2012,10,07,18,30,17.80
2012,10,07,18,31,17.70
2012,10,07,18,32,17.70
2012,10,07,18,33,17.60
2012,10,07,18,34,17.60
2012,10,07,18,35,17.50
2012,10,07,18,36,17.40
2012,10,07,18,37,17.40
2012,10,07,18,39,17.40
2012,10,07,18,40,17.30
2012,10,07,18,41,17.30
2012,10,07,18,42,17.30
2012,10,07,18,43,17.30
2012,10,07,18,44,17.20
2012,10,07,18,45,17.20
2012,10,07,18,46,17.20
2012,10,07,18,47,17.10
2012,10,07,18,48,17.10
2012,10,07,18,49,17.10
2012,10,07,18,50,17.00
2012,10,07,18,52,17.00
2012,10,07,18,53,16.90
2012,10,07,18,54,16.90
2012,10,07,18,55,16.90
2012,10,07,18,56,16.80
2012,10,07,18,57,16.80
2012,10,07,18,58,16.80
2012,10,07,18,59,16.70
2012,10,07,19,00,16.70
2012,10,07,19,01,16.60
2012,10,07,19,02,16.60
2012,10,07,19,03,16.50
2012,10,07,19,04,16.40
2012,10,07,19,05,16.40
2012,10,07,19,06,16.40
2012,10,07,19,07,16.30
2012,10,07,19,08,16.30
2012,10,07,19,10,16.20
2012,10,07,19,11,16.20
2012,10,07,19,12,16.10
2012,10,07,19,13,16.10
2012,10,07,19,15,16.00
2012,10,07,19,16,15.90
2012,10,07,19,17,15.90
2012,10,07,19,18,15.80
2012,10,07,19,19,15.80
2012,10,07,19,20,15.70
2012,10,07,19,21,15.60
2012,10,07,19,22,15.50
2012,10,07,19,23,15.50
2012,10,07,19,24,15.40
2012,10,07,19,25,15.30
2012,10,07,19,26,15.30
2012,10,07,19,27,15.30
2012,10,07,19,29,15.20
2012,10,07,19,30,15.20
2012,10,07,19,31,15.10
2012,10,07,19,32,15.10
2012,10,07,19,34,15.00
2012,10,07,19,35,14.90
2012,10,07,19,36,14.90
2012,10,07,19,37,14.80
2012,10,07,19,39,14.80
2012,10,07,19,40,14.90
2012,10,07,19,41,14.90
2012,10,07,19,42,14.90
2012,10,07,19,43,14.90
2012,10,07,19,44,14.90
2012,10,07,19,45,14.90
2012,10,07,19,46,15.00
2012,10,07,19,47,15.10
2012,10,07,19,48,15.10
2012,10,07,19,49,15.20
2012,10,07,19,50,15.20
2012,10,07,19,51,15.30
2012,10,07,19,53,15.30
2012,10,07,19,54,15.40
2012,10,07,19,55,15.30
2012,10,07,19,57,15.30
2012,10,07,19,58,15.30
2012,10,07,19,59,15.30